Meteo Giornale » Osservazioni meteo Francia » Toussus Le Noble
ore: 02:30 - Osservazioni Meteo Toussus Le Noble
Lat. 48° 46' N Lon. 1° 6' E Alt. 164 metri s.l.m.
14 °C
Sereno
Temp. 24 Ore
13 °C
23 °C
Nord
0 Km/h
Dew point 11 °C
Umidità 82 %
Visibilità 10 Km
Il sole sorge alle ore 07:12
Il sole tramonta alle ore 20:38
| Data e Ora | Cielo e Fenomeni | T °C | DP °C | Um. % | Pres. hPa | Vis. km | Vento km/h | |
|---|---|---|---|---|---|---|---|---|
| Oggi h: 02:30 | Sereno | 14 | 11 | 82 | 1021 | 10 | N 0 | |
| Oggi h: 02:00 | Sereno | 13 | 12 | 93 | 1021 | 10 | N 3.7 | |
| Oggi h: 01:30 | Sereno | 14 | 11 | 82 | 1021 | 10 | N 1.8 | |
| Oggi h: 01:00 | Sereno | 14 | 11 | 82 | 1021 | 10 | N 1.8 | |
| Oggi h: 00:30 | Sereno | 15 | 12 | 82 | 1021 | 10 | N 3.7 | |
| Oggi h: 00:00 | Sereno | 15 | 12 | 82 | 1021 | 10 | N 5.5 | |
| Ieri h: 23:30 | Sereno | 16 | 11 | 72 | 1021 | 10 | N 3.7 | |
| Ieri h: 23:00 | Sereno | 16 | 11 | 72 | 1021 | 10 | N 3.7 | |
| Ieri h: 22:30 | Sereno | 16 | 11 | 72 | 1020 | 10 | N 1.8 | |
| Ieri h: 22:00 | Sereno | 17 | 11 | 67 | 1020 | 10 | N 1.8 | |
| Ieri h: 21:30 | Sereno | 18 | 11 | 63 | 1020 | 10 | N 1.8 | |
| Ieri h: 21:00 | Sereno | 18 | 11 | 63 | 1020 | 10 | N 5.5 | |
| Ieri h: 20:30 | Sereno | 20 | 11 | 56 | 1019 | 10 | O 7.4 | |
| Ieri h: 20:00 | Sereno | 21 | 11 | 52 | 1019 | 10 | O 14.8 | |
| Ieri h: 19:30 | Sereno | 22 | 13 | 56 | 1019 | 10 | O 11.1 | |
| Ieri h: 19:00 | Sereno | 22 | 13 | 56 | 1018 | 10 | O 11.1 | |
| Ieri h: 18:30 | Nuvoloso | 22 | 14 | 60 | 1018 | 10 | O 14.8 | |
| Ieri h: 18:00 | Coperto | 21 | 15 | 68 | 1018 | 10 | O 16.7 | |
| Ieri h: 17:30 | Molto Nuvoloso | 21 | 15 | 68 | 1018 | 10 | O 20.3 | |
| Ieri h: 17:00 | Molto Nuvoloso | 20 | 17 | 82 | 1018 | 10 | O/NO 20.3 | |
| Ieri h: 16:30 | Molto Nuvoloso | 22 | 14 | 60 | 1018 | 10 | O/NO 25.9 | |
| Ieri h: 16:00 | Sereno | 23 | 15 | 60 | 1017 | 10 | O/NO 20.3 | |
| Ieri h: 15:30 | Coperto | 21 | 14 | 64 | 1018 | 10 | O/NO 25.9 | |
| Ieri h: 15:00 | Molto Nuvoloso | 23 | 13 | 53 | 1017 | 10 | O/SO 24 | |
| Ieri h: 14:30 | Molto Nuvoloso | 23 | 14 | 56 | 1017 | 10 | O/SO 27.8 | |
| Ieri h: 14:00 | Molto Nuvoloso | 22 | 13 | 56 | 1017 | 10 | O/SO 24 | |
| Ieri h: 13:30 | Molto Nuvoloso | 22 | 14 | 60 | 1017 | 10 | O/SO 24 | |
| Ieri h: 13:00 | Coperto | 21 | 13 | 60 | 1016 | 10 | O/SO 20.3 | |
| Ieri h: 12:30 | Coperto | 22 | 13 | 56 | 1016 | 10 | O 24 | |
| Ieri h: 12:00 | Coperto | 21 | 14 | 64 | 1016 | 10 | O/SO 22.2 | |
| Ieri h: 11:30 | Molto Nuvoloso | 21 | 13 | 60 | 1016 | 10 | O/SO 27.8 | |
| Ieri h: 11:00 | Molto Nuvoloso | 21 | 14 | 64 | 1016 | 10 | O/SO 33.3 | |
| Ieri h: 10:30 | Molto Nuvoloso | 20 | 14 | 68 | 1015 | 10 | O/SO 25.9 | |
| Ieri h: 10:00 | Coperto | 18 | 15 | 82 | 1015 | 10 | SO 24 | |
| Ieri h: 09:30 | Molto Nuvoloso | 18 | 15 | 82 | 1015 | 10 | O/SO 22.2 | |
| Ieri h: 09:00 | Poco Nuvoloso | 18 | 14 | 77 | 1015 | 10 | SO 25.9 | |
| Ieri h: 08:30 | Molto Nuvoloso | 18 | 14 | 77 | 1014 | 10 | SO 22.2 | |
| Ieri h: 08:00 | Poco Nuvoloso | 17 | 15 | 88 | 1014 | 10 | SO 20.3 | |
| Ieri h: 07:30 | Nuvoloso | 16 | 14 | 87 | 1014 | 10 | SO 24 | |
| Ieri h: 07:00 | Molto Nuvoloso | 16 | 14 | 87 | 1014 | 10 | S/SO 25.9 | |
| Ieri h: 06:30 | Molto Nuvoloso | 16 | 14 | 87 | 1013 | 10 | S/SO 24 | |
| Ieri h: 06:00 | Molto Nuvoloso | 16 | 14 | 87 | 1014 | 10 | S/SO 24 | |
| Ieri h: 05:30 | Sereno | 16 | 14 | 87 | 1014 | 10 | SO 24 | |
| Ieri h: 05:00 | Sereno | 16 | 14 | 87 | 1014 | 10 | SO 24 | |
| Ieri h: 04:30 | Sereno | 17 | 14 | 82 | 1013 | 10 | SO 24 | |
| Ieri h: 04:00 | Poco Nuvoloso | 17 | 14 | 82 | 1013 | 10 | SO 25.9 | |
| Ieri h: 03:30 | Poco Nuvoloso | 17 | 14 | 82 | 1013 | 10 | SO 25.9 | |
| Ieri h: 03:00 | Sereno | 17 | 14 | 82 | 1013 | 10 | SO 24 | |



